     2              OBSERVATION DATA    GPS                 RINEX VERSION / TYPE
TRRINEXO V2.4.6 UX                                          PGM / RUN BY / DATE
                                                            COMMENT
Original Marker Name: lach                                  COMMENT
Campaign Name: STRC 1995                                    COMMENT
4-Character Station Name: LACH                              COMMENT
6-Character Antenna Code: TRMSST                            COMMENT
Vertical Measurement Point: TGP                             COMMENT
Vertical Offset to Rinex Ref. Point: 0.0629                 COMMENT
Radial Measurement Point: NGP                               COMMENT
Radial Offset to Rinex Ref. Point: 0.2334                   COMMENT
Antenna Height from Field Measurement: 1.7360 m             COMMENT
Original XYZ: -2288447.9061 -4873040.6147 3407940.2106      COMMENT
New XYZ position is based on association with SCEC monument COMMENT
E1C9E0L8+0011. Position of that monument is believed to be  COMMENT
valid to within 1 m horizontally; vertical accuracy         COMMENT
should be no worse than 3-times this value.                 COMMENT
                                                            COMMENT
Revised Rinex header created by UCSD GPS archive for        COMMENT
GSAC on 02-Jun-1999 (1999:153) 00:07:41 GMT                 COMMENT
For assistance contact dagnew@ucsd.edu or hjohnson@ucsd.edu COMMENT
                                                            COMMENT
1989 FALLA IMPERIAL 2010                                    MARKER NAME
EJ ECHICERA MEX                                             MARKER NUMBER
NULL SAHOPE (PUBLIC WORKS, BAJA STATE GOVNMT)               OBSERVER / AGENCY
3054 TRIMBLE 4000 SSE 6.10                                  REC # / TYPE / VERS
7941 TR 4000SST L1/L2 GEO                                   ANT # / TYPE
 -2288479.0000 -4873362.0000  3408124.0000                  APPROX POSITION XYZ
        1.6573        0.0000        0.0000                  ANTENNA: DELTA H/E/N
     1     1     0                                          WAVELENGTH FACT L1/2
     5    C1    L1    L2    P2    P1                        # / TYPES OF OBSERV
    30                                                      INTERVAL
  1995     2    18    16     1   30.000000                  TIME OF FIRST OBS
  1995     2    19     0     0    0.000000                  TIME OF LAST OBS
     0                                                      # OF SATELLITES
                                                            END OF HEADER
 95  2 18 16  1 30.0000000  0  4  1 14 15 22
  24475858.680     3449804.95114   2558306.58857  24475862.9924
  21372219.789    -1136933.62216   -849287.69759  21372222.0984
  21646285.180     3032151.79216   2282740.83859  21646288.4494
  22566109.617    -1507906.30715  -1130217.51159  22566113.5084
 95  2 18 16  2  0.0000000  0  4  1 14 15 22
  24496376.242     3557616.313 4   2642315.29747  24496378.8094
  21366170.344    -1168723.541 6   -874059.06749  21366172.5594
  21665803.055     3134719.078 6   2362663.36449  21665806.4414
  22557753.930    -1551815.144 5  -1164432.14749  22557757.8094
 95  2 18 16  2 30.0000000  0  4  1 14 15 22
  24516893.312     3665439.842 4   2726333.57048  24516899.1604
  21360168.727    -1200261.710 6   -898634.25349  21360171.1644
  21685407.539     3237740.393 6   2442939.68249  21685411.4654
  22549446.711    -1595470.422 5  -1198449.16849  22549450.5664
 95  2 18 16  3  0.0000000  0  4  1 14 15 22
  24537416.008     3773288.747 3   2810371.52149  24537420.0164
  21354216.625    -1231540.234 6   -923007.12749  21354219.3324
  21705100.117     3341226.301 6   2523578.02249  21705103.3054
  22541192.516    -1638845.602 5  -1232247.95049  22541196.7464
 95  2 18 16  3 30.0000000  0  4  1 14 15 22
  24557945.164     3881168.333 3   2894433.42346  24557950.2854
  21348315.344    -1262552.396 6   -947172.44249  21348318.0984
  21724880.914     3445175.503 6   2604577.36949  21724884.4774
  22532993.523    -1681933.935 5  -1265823.25649  22532997.2734
 95  2 18 16  4  0.0000000  0  4  1 14 15 22
  24578483.305     3989096.444 4   2978533.20747  24578490.5274
  21342473.602    -1293251.546 6   -971093.85749  21342476.0274
  21744753.805     3549607.305 6   2685952.77249  21744757.5664
  22524854.672    -1724701.603 5  -1299148.67049  22524858.9614
 95  2 18 16  4 30.0000000  0  4  1 14 15 22
  24599025.562     4097050.400 3   3062652.97448  24599031.7034
  21336691.812    -1323635.232 6   -994769.44749  21336694.2384
  21764715.609     3654503.578 6   2767690.08749  21764719.2304
  22516779.789    -1767138.787 5  -1332216.56949  22516783.5274
 95  2 18 16  5  0.0000000  0  4  1 14 15 22
  24619573.070     4205025.616 3   3146789.44647  24619577.6174
  21330969.219    -1353706.394 6  -1018201.52149  21330971.9024
  21784763.039     3759853.392 6   2849780.81849  21784766.1454
  22508764.242    -1809259.036 5  -1365037.53149  22508768.1804
 95  2 18 16  5 30.0000000  0  4  1 14 15 22
  24640124.312     4313022.604 3   3230942.84446  24640131.2194
  21325305.617    -1383470.367 6  -1041394.22849  21325307.8094
  21804896.062     3865654.494 6   2932223.19549  21804899.2384
  22500806.664    -1851078.536 5  -1397624.13149  22500809.9344
 95  2 18 16  6  0.0000000  0  4  1 14 15 22
  24660679.156     4421036.623 4   3315109.52048  24660682.0744
  21319701.578    -1412921.166 6  -1064342.89649  21319703.5234
  21825115.781     3971907.779 6   3015017.92449  21825119.2384
  22492909.883    -1892576.105 5  -1429959.88149  22492913.1884
 95  2 18 16  6 30.0000000  0  4  1 14 15 22
  24681234.898     4529063.888 3   3399286.43646  24681238.6134
  21314150.992    -1442088.308 6  -1087070.53649  21314153.0084
  21845416.844     4078593.245 6   3098149.42949  21845420.3134
  22485071.797    -1933764.958 5  -1462055.06749  22485075.7344
 95  2 18 16  7  0.0000000  0  4  1 14 15 22
  24701796.609     4637112.048 3   3483479.75248  24701800.2304
  21308654.547    -1470972.546 6  -1109577.73749  21308656.6564
  21865801.438     4185715.335 6   3181621.14349  21865804.7424
  22477291.148    -1974651.951 5  -1493915.06049  22477294.1484
 95  2 18 16  7 30.0000000  0  4  1 14 15 22
  24722362.938     4745186.211 3   3567693.23446  24722366.8874
  21303217.914    -1499543.044 6  -1131840.46649  21303220.4574
  21886270.961     4293283.943 6   3265440.79849  21886274.8404
  22469572.109    -2015215.173 5  -1525522.75149  22469575.9654
 95  2 18 16  8  0.0000000  0  4  1 14 15 22
  24742935.664     4853291.334 3   3651930.68447  24742941.5944
  21297842.914    -1527786.847 6  -1153848.61249  21297845.4104
  21906824.594     4401292.643 6   3349603.39749  21906828.0164
  22461914.094    -2055458.792 5  -1556881.40149  22461917.1524
 95  2 18 16  8 30.0000000  0  4  1 14 15 22
  24763514.680     4961439.029 3
  21292528.828    -1555715.016 6  -1175610.82149  21292530.7854
  21927460.609     4509733.455 6   3434102.68449  21927463.6334
  22454310.703    -2095416.370 6  -1588017.20549  22454314.5594
 95  2 18 16  9  0.0000000  0  4  1 14 15 22
  24784101.359     5069621.692 3
  21287276.508    -1583316.134 6  -1197118.19249  21287278.6524
  21948177.953     4618603.933 6   3518936.78149  21948181.8674
  22446761.562    -2135083.758 5  -1618926.86649  22446765.7584
 95  2 18 16  9 30.0000000  0  4  1 14 15 22
  24804695.844     5177849.739 3     73089.22957  24804700.7424
  21282087.469    -1610584.411 6  -1218366.18949  21282089.9304
  21968976.680     4727901.792 6   3604103.90149  21968980.5594
  22439269.961    -2174454.196 5  -1649605.11549  22439274.2154
 95  2 18 16 10  0.0000000  0  4  1 14 15 22
  24825300.961     5286128.538 3    157462.21647  24825306.9614
  21276961.445    -1637523.063 6  -1239357.34749  21276963.3204
  21989857.562     4837630.455 6   3689606.69949  21989861.6054
  22431837.930    -2213511.391 6  -1680039.28449  22431842.2304
 95  2 18 16 10 30.0000000  0  4  1 14 15 22
  24845913.148     5394444.702 4    241864.28547  24845918.4924
  21271899.195    -1664124.243 6  -1260085.53949  21271901.0594
  22010819.586     4947788.827 6   3775444.35649  22010823.2304
  22424469.812    -2252229.907 6  -1710209.57149  22424474.0904
 95  2 18 16 11  0.0000000  0  4  1 14 15 22
  24866526.359     5502766.435 3    326270.73848  24866531.7154
  21266901.609    -1690384.648 6  -1280548.19549  21266903.8364
  22031861.617     5058363.949 6   3861606.73749  22031865.4264
  22417167.281    -2290602.854 5  -1740110.57849  22417171.9924
 95  2 18 16 11 30.0000000  0  4  1 14 15 22
  24887137.352     5611080.286 3    410670.99247  24887142.0044
  21261970.141    -1716300.936 6  -1300742.69849  21261972.2384
  22052981.461     5169350.653 6   3948089.84749  22052985.0234
  22409928.883    -2328640.588 5  -1769750.38549  22409933.5474
 95  2 18 16 12  0.0000000  0  3 14 15 22
  21257106.219    -1741859.773 6  -1320658.68649  21257108.2234
  22074180.672     5280752.263 6   4034896.24449  22074184.6214
  22402756.187    -2366335.061 6  -1799122.67649  22402760.6994
 95  2 18 16 12 30.0000000  0  3 14 15 22
  21252307.625    -1767077.748 7  -1340309.06049  21252310.7194
  22095456.594     5392557.410 6   4122017.07249  22095459.8754
  22395646.320    -2403700.099 6  -1828238.29049  22395650.0474
 95  2 18 16 13  0.0000000  0  3 14 15 22
  21247572.312    -1791960.708 7  -1359698.37649  21247575.1254
  22116807.750     5504758.903 6   4209446.75549  22116811.2774
  22388596.008    -2440746.913 6  -1857105.93949  22388599.7344
 95  2 18 16 13 30.0000000  0  3 14 15 22
  21242901.797    -1816505.151 7  -1378823.91649  21242904.2584
  22138234.719     5617357.511 6   4297185.89549  22138237.8714
  22381608.672    -2477465.046 6  -1885717.46149  22381612.4454
 95  2 18 16 14  0.0000000  0  3 14 15 22
  21238292.344    -1840727.677 7  -1397698.60749  21238294.8524
  22159735.352     5730342.415 6   4385226.03149  22159738.3984
  22374686.703    -2513840.830 6  -1914062.19349  22374691.0394
 95  2 18 16 14 30.0000000  0  3 14 15 22
  21233745.094    -1864625.057 7  -1416319.94049  21233747.2624
  22181308.453     5843711.226 6   4473565.31549  22181311.6054
  22367830.789    -2549868.972 6  -1942136.04749  22367834.4454
 95  2 18 16 15  0.0000000  0  3 14 15 22
  21229261.648    -1888185.685 7  -1434678.87349  21229263.6884
  22202954.055     5957460.920 6   4562201.38249  22202957.7234
  22361043.609    -2585538.075 6  -1969930.11849  22361046.8794
 95  2 18 16 15 30.0000000  0  3 14 15 22
  21224840.195    -1911418.809 7  -1452782.60349  21224842.5044
  22224672.602     6071592.200 6   4651134.80349  22224676.1764
  22354326.773    -2620833.402 6  -1997432.92649  22354329.9024
 95  2 18 16 16  0.0000000  0  3 14 15 22
  21220484.320    -1934308.934 7  -1470619.06049  21220486.8524
  22246465.805     6186115.658 6   4740373.80049  22246469.3914
  22347683.766    -2655743.253 6  -2024635.37849  22347686.4494
 95  2 18 16 16 30.0000000  0  3 14 15 22
  21216195.133    -1956851.337 7  -1488184.56949  21216197.3714
  22268332.195     6301024.333 6   4829912.98549  22268336.2384
  22341110.688    -2690284.480 6  -2051550.57449  22341113.7114
 95  2 18 16 17  0.0000000  0  3 14 15 22
  21211974.461    -1979029.056 7  -1505465.91249  21211977.0274
  22290274.641     6416330.588 6   4919761.96649  22290277.8404
  22334612.055    -2724434.652 6  -2078161.05649  22334615.6054
 95  2 18 16 17 30.0000000  0  3 14 15 22
  21207825.758    -2000832.302 7  -1522455.45249  21207828.1484
  22312291.141     6532028.376 6   5009916.03949  22312294.6334
  22328185.836    -2758201.546 6  -2104472.88749  22328189.1884
 95  2 18 16 18  0.0000000  0  3 14 15 22
  21203755.680    -2022220.151 7  -1539121.31149  21203758.1414
  22334383.906     6648126.665 6   5100382.19149  22334387.0824
  22321834.094    -2791582.622 6  -2130484.06949  22321837.6804
 95  2 18 16 18 30.0000000  0  3 14 15 22
  21199762.414    -2043206.810 7  -1555474.54949  21199764.5704
  22356547.984     6764599.714 6   5191140.35549  22356551.1724
  22315552.594    -2824593.139 6  -2156206.51849  22315556.0744
 95  2 18 16 19  0.0000000  0  3 14 15 22
  21195851.969    -2063757.178 7  -1571487.82749  21195853.9374
  22378788.531     6881474.237 6   5282211.35949  22378791.7074
  22309347.125    -2857200.883 6  -2181615.10549  22309350.5354
 95  2 18 16 19 30.0000000  0  3 14 15 22
  21192017.492    -2083907.052 7  -1587189.03549  21192019.4384
  22401098.984     6998714.964 6   5373567.72849  22401102.7934
  22303212.539    -2889439.240 6  -2206735.86949  22303216.3014
 95  2 18 16 20  0.0000000  0  3 14 15 22
  21188257.719    -2103663.012 7  -1602583.29349  21188260.1804
  22423480.859     7116332.273 6   5465217.53249  22423484.1524
  22297150.977    -2921289.242 6  -2231554.02749  22297154.7154
 95  2 18 16 20 30.0000000  0  3 14 15 22
  21184568.984    -2123046.694 7  -1617687.46149  21184571.3164
  22445934.320     7234326.067 6   5557160.68949  22445937.7424
  22291168.047    -2952732.182 6  -2256054.98749  22291171.9844
 95  2 18 16 21  0.0000000  0  3 14 15 22
  21180948.836    -2142071.685 7  -1632512.13249  21180951.0164
  22468458.305     7352691.703 6   5649393.60549  22468462.6054
  22285263.219    -2983761.373 6  -2280233.56449  22285266.9924
 95  2 18 16 21 30.0000000  0  3 14 15 22
  21177397.625    -2160734.978 7  -1647054.95549  21177399.4884
  22491053.523     7471430.693 6   5741917.44749  22491057.4734
  22279440.055    -3014362.311 6  -2304078.42349  22279443.8284
 95  2 18 16 22  0.0010000  0  3 14 15 22
  21173918.864    -2179015.966 7  -1661299.89149  21173920.9384
  22513722.349     7590555.884 6   5834742.22449  22513726.7434
  22273700.255    -3044525.814 6  -2327582.43849  22273703.9814
 95  2 18 16 22 30.0010000  0  3 14 15 22
  21170510.036    -2196928.574 7  -1675257.76749  21170511.8994
  22536455.380     7710017.376 6   5927829.04949  22536459.0834
  22268035.731    -3074289.931 6  -2350775.23849  22268039.0014
 95  2 18 16 23  0.0010000  0  3 14 15 22
  21167179.099    -2214432.267 7  -1688897.01649  21167180.9274
  22559257.021     7829840.401 6   6021197.58849  22559261.0874
  22262451.286    -3103640.572 6  -2373645.85149  22262455.0244
 95  2 18 16 23 30.0010000  0  3 14 15 22
  21163926.497    -2231526.481 7  -1702217.18849  21163928.4664
  22582124.419     7950010.039 6   6114836.21549  22582128.0994
  22256941.771    -3132591.092 6  -2396204.68649  22256945.5794
 95  2 18 16 24  0.0010000  0  3 14 15 22
  21160752.700    -2248205.284 7  -1715213.65649  21160754.6464
  22605058.521     8070531.440 6   6208748.94749  22605062.8454
  22251511.661    -3161127.614 6  -2418440.93049  22251515.2004
 95  2 18 16 24 30.0010000  0  3 14 15 22
  21157656.513    -2264476.677 7  -1727892.66549  21157658.3534
  22628059.364     8191397.841 6   6302930.51649  22628063.8064
  22246161.606    -3189243.370 6  -2440349.29949  22246165.3214
 95  2 18 16 25  0.0010000  0  3 14 15 22
  21154637.739    -2280339.185 7  -1740253.07149  21154639.6264
  22651126.036     8312613.373 6   6397384.12549  22651129.9624
  22240894.294    -3216921.798 6  -2461916.89649  22240898.1494
 95  2 18 16 25 30.0010000  0  3 14 15 22
  21151699.450    -2295776.920 7  -1752282.47249  21151701.9354
  22674260.067     8434185.031 6   6492115.22949  22674263.7124
  22235715.052    -3244139.472 6  -2483125.47449  22235718.4854
 95  2 18 16 26  0.0010000  0  3 14 15 22
  21148837.513    -2310818.254 7  -1764002.99249  21148839.8454
  22697455.544     8556078.999 6   6587097.49649  22697460.2084
  22230618.958    -3270920.128 6  -2503993.51249  22230623.1064
 95  2 18 16 26 30.0010000  0  3 14 15 22
  21146055.317    -2325441.228 7  -1775397.51949  21146057.5094
  22720714.599     8678303.498 6   6682337.32049  22720718.7714
  22225610.669    -3297241.439 6  -2524503.61549  22225614.2204
 95  2 18 16 27  0.0010000  0  3 14 15 22
  21143355.669    -2339625.933 7  -1786450.53349  21143357.8494
  22744037.856     8800868.325 6   6777842.33949  22744042.0634
  22220693.091    -3323082.668 6  -2544639.63749  22220696.3134
 95  2 18 16 27 30.0010000  0  3 14 15 22
  21140737.591    -2353383.033 7  -1797170.34949  21140739.9234
  22767423.169     8923759.566 6   6873601.69049  22767426.9894
  22215864.481    -3348455.230 6  -2564410.45149  22215868.1264
 95  2 18 16 28  0.0010000  0  3 14 15 22
  21138201.255    -2366711.243 7  -1807555.96749  21138203.3644
  22790871.638     9046980.607 6   6969618.02849  22790875.5054
  22211125.724    -3373358.323 6  -2583815.43949  22211129.1924
 95  2 18 16 28 30.0010000  0  3 14 15 22
  21135746.575    -2379612.337 7  -1817608.77249  21135748.8134
  22814380.622     9170520.501 6   7065882.83549  22814384.5364
  22206471.192    -3397815.508 6  -2602872.97349  22206474.8604
 95  2 18 16 29  0.0010000  0  3 14 15 22
  21133373.653    -2392081.809 7  -1827325.24449  21133375.7164
  22837949.372     9294374.919 6   7162392.71449  22837953.2284
  22201897.106    -3421852.721 6  -2621603.24849  22201901.2204
 95  2 18 16 29 30.0010000  0  3 14 15 22
  21131086.177    -2404102.192 7  -1836691.77549  21131088.3454
  22861582.396     9418564.841 6   7259164.03349  22861585.6654
  22197406.864    -3445449.691 6  -2639990.47449  22197410.9194
 95  2 18 16 30  0.0010000  0  3 14 15 22
  21128884.028    -2415673.463 7  -1845708.34149  21128886.6184
  22885277.685     9543084.892 6   7356192.58949  22885281.2474
  22192999.755    -3468612.373 6  -2658039.29149  22193003.1064
 95  2 18 16 30 30.0010000  0  3 14 15 22
  21126770.614    -2426780.752 7  -1854363.37949  21126772.7124
  22909035.794     9667937.718 6   7453480.46549  22909040.1064
  22188677.888    -3491324.529 6  -2675737.05349  22188681.1224
 95  2 18 16 31  0.0010000  0  3 14 15 22
  21124742.419    -2437437.687 7  -1862667.48049  21124744.8334
  22932857.458     9793118.303 6   7551023.71849  22932861.1144
  22184444.747    -3513565.900 6  -2693067.95349  22184448.3214
 95  2 18 16 31 30.0010000  0  3 14 15 22
  21122798.919    -2447651.304 7  -1870626.14449  21122801.2394
  22956738.872     9918618.523 6   7648816.03149  22956742.7394
  22180305.536    -3535317.298 6  -2710017.05549  22180309.4504
 95  2 18 16 32  0.0010000  0  3 14 15 22
  21120942.013    -2457411.312 7  -1878231.34349  21120944.1694
  22980680.825    10044433.234 6   7746853.42549  22980684.3294
  22176260.567    -3556573.424 6  -2726580.23449  22176264.9274
 95  2 18 16 32 30.0010000  0  3 14 15 22
  21119167.239    -2466737.713 7  -1885498.66549  21119169.4544
  23004677.442    10170537.231 6   7845116.22249  23004681.0634
  22172308.981    -3577339.374 6  -2742761.47049  22172312.7204
 95  2 18 16 33  0.0010000  0  3 14 15 22
  21117473.286    -2475638.343 7  -1892434.22049  21117475.8644
  23028727.481    10296919.669 6   7943595.98949  23028731.4074
  22168449.419    -3597622.389 6  -2758566.37549  22168453.3564
 95  2 18 16 33 30.0010000  0  3 14 15 22
  21115867.067    -2484079.241 7  -1899011.54049  21115869.4234
  23052833.497    10423596.788 6   8042305.39349  23052836.9194
  22164684.685    -3617404.130 6  -2773980.68849  22164689.0564
 95  2 18 16 34  0.0010000  0  3 14 15 22
  21114349.950    -2492051.961 7  -1905224.05349  21114352.4234
  23076995.114    10550568.262 6   8141244.14349  23076999.0284
  22161016.099    -3636685.353 6  -2789004.98649  22161020.0364
 95  2 18 16 34 30.0010000  0  3 14 15 22
  21112922.122    -2499553.909 7  -1911069.72649  21112924.8064
  23101211.958    10677826.042 6   8240405.99449  23101215.4854
  22157442.044    -3655467.668 6  -2803640.51749  22157445.9814
 95  2 18 16 35  0.0010000  0  3 14 15 22
  21111586.146    -2506577.483 7  -1916542.63949  21111588.5244
  23125482.833    10805370.323 6   8339791.10849  23125486.4894
  22153962.302    -3673750.604 6  -2817886.91749  22153965.9814
 95  2 18 16 35 30.0010000  0  3 14 15 22
  21110340.286    -2513122.772 7  -1921642.86649  21110342.5954
  23149807.435    10933197.613 6   8439396.70849  23149811.5244
  22150577.942    -3691538.975 7  -2831747.95049  22150581.5284
 95  2 18 16 36  0.0010000  0  3 14 15 22
  21109185.192    -2519192.697 7  -1926372.68049  21109187.2784
  23174184.989    11061303.063 6   8539219.09349  23174189.3024
  22147287.755    -3708828.476 6  -2845220.24549  22147291.4934
 95  2 18 16 36 30.0010000  0  3 14 15 22
  21108122.349    -2524780.561 7  -1930726.86249  21108124.2594
  23198616.880    11189693.531 6   8639263.56049  23198621.4384
  22144095.466    -3725603.091 7  -2858291.32249  22144099.2514
 95  2 18 16 37  0.0010000  0  3 14 15 22
  21107146.958    -2529904.389 7  -1934719.46249  21107149.1494
  23223100.474    11318353.201 6   8739517.78049  23223105.0914
  22140997.310    -3741883.965 7  -2870977.68349  22141000.9074
 95  2 18 16 37 30.0010000  0  3 14 15 22
  21106259.349    -2534568.556 7  -1938353.87749  21106261.5524
  23247633.981    11447276.966 6   8839977.81549  23247638.5994
  22137993.302    -3757670.600 7  -2883278.91449  22137996.4894
 95  2 18 16 38  0.0010000  0  3 14 15 22
  21105459.903    -2538770.375 7  -1941628.01849  21105462.0244
  23272217.771    11576468.659 6   8940646.61249  23272222.2244
  22135087.661    -3772939.699 7  -2895176.87149  22135091.1424
 95  2 18 16 38 30.0010000  0  3 14 15 22
  21104746.560    -2542519.779 7  -1944549.63249  21104748.7514
  23296851.396    11705914.697 6   9041513.62049  23296855.7314
  22132277.052    -3787709.058 7  -2906685.42549  22132280.4384
 95  2 18 16 39  0.0010000  0  3 14 15 22
  21104122.536    -2545798.705 7  -1947104.64649  21104124.2824
  23321535.325    11835631.474 6   9142591.55749  23321539.5564
  22129565.294    -3801958.527 7  -2917788.87149  22129569.1144
 95  2 18 16 39 30.0010000  0  3 14 15 22
  21103590.067    -2548596.754 7  -1949284.94449  21103592.0364
  23346270.114    11965613.595 6   9243876.27149  23346274.1224
  22126954.185    -3815681.204 7  -2928481.82849  22126957.5604
 95  2 18 16 40  0.0010000  0  3 14 15 22
  21103152.653    -2550894.923 7  -1951075.72349  21103154.9744
  23371054.849    12095859.691 5   9345366.68449  23371058.6104
  22124443.599    -3828872.272 7  -2938760.54049  22124447.3954
 95  2 18 16 40 30.0010000  0  3 14 15 22
  21102811.317    -2552688.959 7  -1952473.67249  21102813.4154
  23395887.567    12226354.430 6   9447050.82349  23395891.3064
  22122031.278    -3841549.908 7  -2948639.18949  22122034.8994
 95  2 18 16 41  0.0010000  0  3 14 15 22
  21102569.255    -2553960.877 7  -1953464.78349  21102571.3534
  23420768.294    12357104.445 5   9548933.90749  23420772.1964
  22119720.505    -3853692.244 7  -2958100.71749  22119723.5174
 95  2 18 16 41 30.0020000  0  4 18 14 15 22
  25231841.416       -6159.52913
  21102424.299        -212.76616
  23445888.603       21846.28615
  22117496.924       -4191.09516
 95  2 18 16 42  0.0020000  0  4 18 14 15 22
  25224815.010      -43087.662 3
  21102380.846        -441.619 6        -6.76959  21102383.0614
  23470865.018      153099.153 5
  22115393.979      -15239.482 6     -2254.30959  22115396.5924
 95  2 18 16 42 30.0020000  0  4 18 14 15 22
  25217794.588      -79975.278 3     -2874.36056  25217799.8504
  21102428.369        -192.262 6       187.54749  21102430.6894
  23495884.166      284578.404 5     61486.25559  23495888.8774
  22113392.846      -25756.148 6    -10449.08849  22113395.9394
 95  2 18 16 43  0.0020000  0  4 18 14 15 22
  25210778.408     -116849.437 3    -31607.53546  25210784.6434
  21102561.314         505.553 6       731.30349  21102563.5294
  23520941.439      416252.944 5    164089.74049  23520945.4124
  22111487.119      -35773.937 6    -18255.13649  22111490.0144
 95  2 18 16 43 30.0020000  0  4 18 14 15 22
  25203769.494     -153678.783 2    -60305.72946  25203773.7714
  21102785.564        1684.281 6      1649.79249  21102787.2874
  23546042.916      548158.070 6    266872.88149  23546047.0184
  22109681.119      -45261.862 6    -25648.31449  22109684.5184
 95  2 18 16 44  0.0020000  0  4 18 14 15 22
  25196773.346     -190442.118 2    -88952.46945  25196778.2794
  21103105.658        3366.427 6      2960.55649  21103107.8734
  23571190.439      680307.628 6    369846.49049  23571193.7094
  22107979.666      -54201.291 6    -32614.08649  22107983.4634
 95  2 18 16 44 30.0020000  0  4 18 14 15 22
  25189794.791     -227117.946 2   -117531.10245  25189799.2684
  21103529.025        5592.082 6      4694.83949  21103531.4394
  23596387.557      812722.203 5    473026.60949  23596391.7404
  22106384.955      -62581.323 6    -39143.97049  22106388.8934
 95  2 18 16 45  0.0020000  0  4 18 14 15 22
  25182832.729     -263703.342 2   -146039.13847  25182841.5924
  21104055.150        8356.489 6      6848.92349  21104057.4244
  23621633.174      945388.396 5    576402.78749  23621637.2994
  22104895.182      -70410.971 6    -45244.98849  22104898.8854
 95  2 18 16 45 30.0020000  0  4 18 14 15 22
  25175890.236     -300190.368 3   -174470.61445  25175895.1004
  21104684.885       11664.578 6      9426.65449  21104687.1234
  23646925.658     1078303.481 5    679972.90649  23646930.5804
  22103512.221      -77679.274 6    -50908.58749  22103515.6194
 95  2 18 16 46  0.0020000  0  4 18 14 15 22
  25168965.877     -336578.362 3   -202824.83346  25168968.9474
  21105421.799       15539.023 6     12445.70349  21105424.1074
  23672266.900     1211471.918 5    783740.45049  23672271.5414
  22102237.252      -84378.476 6    -56128.74549  22102240.3464
 95  2 18 16 46 30.0020000  0  4 18 14 15 22
  25162053.799     -372898.467 3   -231126.19647  25162058.4514
  21106265.049       19970.634 6     15898.90849  21106267.3814
  23697653.135     1344871.435 5    887688.04349  23697656.7684
  22101065.619      -90533.671 6    -60924.98049  22101069.2524
 95  2 18 16 47  0.0020000  0  4 18 14 15 22
  25155150.377     -409175.240 3   -259393.82747  25155155.7684
  21107214.057       24957.317 6     19784.63049  21107216.2834
  23723081.307     1478499.929 5    991814.07149  23723085.6544
  22100002.518      -96122.034 6    -65279.53549  22100005.6114
 95  2 18 16 47 30.0020000  0  4 18 14 15 22
  25148250.275     -445436.233 3   -287649.14846  25148254.4244
  21108268.260       30495.944 6     24100.43949  21108270.2994
  23748551.689     1612347.801 5   1096111.02649  23748555.7684
  22099048.994     -101133.199 6    -69184.33249  22099052.1114
 95  2 18 16 48  0.0020000  0  4 18 14 15 22
  25141351.916     -481691.527 3   -315900.03548  25141356.0414
  21109423.799       36569.761 6     28833.28149  21109426.1194
  23774062.088     1746405.173 5   1200571.24449  23774066.1074
  22098207.283     -105556.331 6    -72630.91649  22098210.6704
 95  2 18 16 48 30.0020000  0  4 18 14 15 22
  25134456.658     -517923.379 3   -344132.65747  25134460.4084
  21110676.721       43152.662 6     33962.81649  21110679.1114
  23799610.564     1880664.288 5   1305188.65249  23799613.6004
  22097480.572     -109374.891 6    -75606.40549  22097483.8544
 95  2 18 16 49  0.0020000  0  4 18 14 15 22
  25127570.627     -554112.041 3   -372331.57647  25127574.4824
  21112022.150       50222.828 6     39472.02849  21112023.9794
  23825196.822     2015118.981 5   1409958.46149  23825201.1004
  22096870.541     -112582.069 6    -78105.49449  22096873.6704
 95  2 18 16 49 30.0020000  0  4 18 14 15 22
  25120695.361     -590239.438 3   -400482.85346  25120700.1544
  21113456.947       57762.897 6     45347.39949  21113459.0214
  23850816.283     2149748.705 5   1514864.64849  23850820.9124
  22096369.814     -115212.288 6    -80155.00249  22096373.1664
 95  2 18 16 50  0.0020000  0  4 18 14 15 22
  25113830.533     -626306.952 3   -428587.45746  25113836.8734
  21114978.666       65760.481 6     51579.27849  21114980.9634
  23876466.252     2284542.473 5   1619898.66749  23876470.9394
  22095974.502     -117289.338 6    -81773.47449  22095977.4084
 95  2 18 16 50 30.0020000  0  4 18 14 15 22
  25106982.025     -662305.356 3   -456638.17246  25106986.9004
  21116594.635       74251.976 6     58196.02349  21116596.6624
  23902151.744     2419517.524 5   1725073.94349  23902156.0574
  22095684.502     -118812.119 6    -82960.03249  22095687.9944
